SeaHawk Activity Monitor

SeaHawk SOC Dashboard


KEY:SubmittedProcessedUplinkedExecuted

Activity ID Activity Type Activity Start Time Target Tilt Angle Activity End Time Euler Angles Max Elevation
211720111 image 2021-06-21 01:11:02 western Papua 20°  
211720238 image 2021-06-21 02:37:22 Liaodong Bay China2 -20°  
211720418 image 2021-06-21 04:17:05 Bengladesh 20°  
211720548 image 2021-06-21 05:47:47 Lake Balkhash -20°  
211720725 image 2021-06-21 07:24:49 W. Caspian Sea -20°  
211720744 image 2021-06-21 07:43:10 S. Mozambique 20°  
211720903 image 2021-06-21 09:02:33 W. Aegean Sea -20°  
211720917 image 2021-06-21 09:16:23 Angola 20°  
211721036 image 2021-06-21 10:35:25 Netherlands2 -20°  
211721228 image 2021-06-21 12:27:19 Natal Brazil 0  
211721400 image 2021-06-21 13:59:30 Suriname 20°  
W2125-2467 downlink 2021-06-21 15:24:35 WG1 2021-06-21 15:32:45 roll=0;pitch=-20;yaw=0 70.13
211721547 image 2021-06-21 15:46:30 SE Pacific 20°  
211721657 image 2021-06-21 16:56:12 Northwestern Passages -20°  
211721709 image 2021-06-21 17:08:29 Mexico 20°  
211721841 image 2021-06-21 18:40:36 San Francisco Monterey -20°  
211721857 image 2021-06-21 18:56:19 Open Ocean 20°  
211722012 image 2021-06-21 20:11:26 Glacier Bay -20°  
211722033 image 2021-06-21 20:32:06 Cook Islands 20°  
W2125-2447 downlink 2021-06-21 21:41:57 AS3 2021-06-21 21:50:08 roll=0;pitch=-20;yaw=0 53.12
211722208 image 2021-06-21 22:07:11 Fiji2 20°  
211722346 image 2021-06-21 23:45:26 GBR1 20°